Weather History for Evansville, IN

Change the Weather History Date:

Friday, September 7, 2012

  Actual Average Record
Temperature  
Mean Temperature 79 °F 72 °F  
Max Temperature 91 °F 85 °F 101 °F (1925)
Min Temperature 67 °F 61 °F 43 °F (1988)
Degree Days  
Heating Degree Days 0 0  
Month to date heating degree days 0 0  
Since 1 July heating degree days 0 1  
Cooling Degree Days 14 8  
Month to date cooling degree days 100 61  
Year to date cooling degree days 1767 1260  
Growing Degree Days 28 (Base 50)    
Moisture  
Dew Point 67 °F    
Average Humidity 74    
Maximum Humidity 97    
Minimum Humidity 50    
Precipitation  
Precipitation 0.86 in 0.10 in 1.49 in (1914)
Month to date precipitation 4.07 0.67  
Year to date precipitation 22.04 31.59  
Snow  
Snow 0.00 in 0.00 in T in (1990)
Month to date snowfall 0.0 0.0  
Since 1 July snowfall 0.0 0.0  
Since 1 September snowfall 0.0 0.0  
Snow Depth 0.00 in    
Sea Level Pressure  
Sea Level Pressure 29.81 in    
Wind  
Wind Speed 6 mph (SW)    
Max Wind Speed 37 mph    
Max Gust Speed 52 mph    
Visibility 8 miles    
Events Rain , Thunderstorm    
T = Trace of Precipitation, MM = Missing Value Source: NWS Daily Summary

Daily Weather History Graph

Daily Weather History Graph

Search for Another Location

Airport:

Trip Planner

Search our weather history database for the weather conditions in past years. The results will help you decide how hot, cold, wet, or windy it might be!

Date:

Astronomy

Sep. 07, 2012 Rise Set
Actual Time 6:25 AM CDT 7:09 PM CDT
Civil Twilight 5:58 AM CDT 7:36 PM CDT
Nautical Twilight 5:27 AM CDT 8:07 PM CDT
Astronomical Twilight 4:54 AM CDT 8:40 PM CDT
Moon 11:12 PM CDT (9/7) 1:10 PM CDT (9/7)
Length of Visible Light 13h 37m
Length of Day
12h 44m
Waning Gibbous, 58% of the Moon is Illuminated
Sep 7
Waning Gibbous
Sep 8
Last Quarter
Sep 15
New
Sep 22
First Quarter
Sep 29
Full

Hourly Weather History & Observations

Time (CDT) Temp. Heat Index Dew Point Humidity Pressure Visibility Wind Dir Wind Speed Gust Speed Precip Events Conditions
12:54 AM 69.8 °F - 66.2 °F 88% 29.90 in 10.0 mi Calm Calm - N/A   Clear
1:54 AM 71.1 °F - 66.0 °F 84% 29.89 in 10.0 mi Calm Calm - N/A   Clear
2:54 AM 69.1 °F - 66.0 °F 90% 29.90 in 10.0 mi WSW 3.5 mph - N/A   Clear
3:54 AM 70.0 °F - 66.0 °F 87% 29.90 in 10.0 mi WSW 4.6 mph - N/A   Clear
4:54 AM 68.0 °F - 64.0 °F 87% 29.91 in 10.0 mi SW 5.8 mph - N/A   Clear
5:54 AM 69.1 °F - 64.9 °F 87% 29.91 in 10.0 mi Calm Calm - N/A   Clear
6:54 AM 68.0 °F - 64.9 °F 90% 29.93 in 10.0 mi Calm Calm - N/A   Clear
7:54 AM 71.1 °F - 66.0 °F 84% 29.93 in 10.0 mi South 3.5 mph - N/A   Clear
8:54 AM 73.9 °F - 64.9 °F 73% 29.92 in 10.0 mi South 3.5 mph - N/A   Partly Cloudy
9:54 AM 79.0 °F - 66.0 °F 64% 29.92 in 10.0 mi South 5.8 mph - N/A   Scattered Clouds
10:54 AM 82.0 °F 84.1 °F 66.0 °F 58% 29.91 in 10.0 mi South 4.6 mph - N/A   Mostly Cloudy
11:54 AM 87.1 °F 89.9 °F 66.9 °F 51% 29.87 in 10.0 mi South 10.4 mph - N/A   Clear
12:54 PM 89.1 °F 93.7 °F 69.1 °F 52% 29.85 in 10.0 mi SW 12.7 mph 20.7 mph N/A   Clear
1:54 PM 90.0 °F 94.5 °F 69.1 °F 50% 29.83 in 10.0 mi SSW 10.4 mph - N/A   Partly Cloudy
2:54 PM 87.1 °F 91.3 °F 69.1 °F 55% 29.81 in 10.0 mi SSW 8.1 mph - 0.00 in Rain Light Rain
3:54 PM 91.0 °F 96.6 °F 70.0 °F 50% 29.76 in 10.0 mi SW 10.4 mph - 0.00 in   Scattered Clouds
4:54 PM 88.0 °F 92.9 °F 70.0 °F 55% 29.72 in 10.0 mi South 10.4 mph - N/A   Mostly Cloudy
5:54 PM 87.1 °F 92.8 °F 71.1 °F 59% 29.69 in 10.0 mi South 8.1 mph - N/A   Scattered Clouds
6:54 PM 86.0 °F 90.7 °F 70.0 °F 59% 29.68 in 10.0 mi SSW 6.9 mph - N/A   Clear
7:54 PM 84.9 °F 89.4 °F 70.0 °F 61% 29.68 in 10.0 mi South 6.9 mph - N/A   Mostly Cloudy
8:45 PM 82.4 °F 83.4 °F 62.6 °F 51% 29.71 in 10.0 mi SSW 17.3 mph 36.8 mph N/A Thunderstorm Partly Cloudy
8:54 PM 81.0 °F 81.9 °F 62.1 °F 52% 29.69 in 10.0 mi SSW 13.8 mph - N/A Thunderstorm Thunderstorm
9:07 PM 75.2 °F - 66.2 °F 73% 29.81 in 4.0 mi WNW 33.4 mph 51.8 mph 0.01 in Rain , Thunderstorm Light Thunderstorms and Rain
9:11 PM 69.8 °F - 66.2 °F 88% 29.81 in 1.8 mi WNW 23.0 mph 51.8 mph 0.05 in Rain , Thunderstorm Heavy Thunderstorms and Rain
9:17 PM 69.8 °F - 66.2 °F 88% 29.81 in 1.2 mi WNW 16.1 mph 39.1 mph 0.23 in Rain , Thunderstorm Heavy Thunderstorms and Rain
9:22 PM 69.8 °F - 66.2 °F 88% 29.80 in 1.2 mi NW 12.7 mph 28.8 mph 0.35 in Rain , Thunderstorm Heavy Thunderstorms and Rain
9:29 PM 69.8 °F - 66.2 °F 88% 29.79 in 2.0 mi WNW 15.0 mph 21.9 mph 0.49 in Rain , Thunderstorm Heavy Thunderstorms and Rain
9:35 PM 69.8 °F - 66.2 °F 88% 29.78 in 4.0 mi NW 11.5 mph 21.9 mph 0.51 in Rain , Thunderstorm Heavy Thunderstorms and Rain
9:46 PM 69.8 °F - 66.2 °F 88% 29.78 in 5.0 mi WNW 8.1 mph 17.3 mph 0.54 in Rain , Thunderstorm Heavy Thunderstorms and Rain
9:54 PM 69.1 °F - 66.9 °F 93% 29.77 in 5.0 mi Variable 4.6 mph - 0.57 in Rain , Thunderstorm Heavy Rain
9:58 PM 69.8 °F - 66.2 °F 88% 29.78 in 5.0 mi NNW 4.6 mph - 0.01 in Rain , Thunderstorm Heavy Thunderstorms and Rain
10:19 PM 69.8 °F - 66.2 °F 88% 29.76 in 4.0 mi NE 5.8 mph - 0.08 in Rain , Thunderstorm Heavy Rain
10:47 PM 69.8 °F - 66.2 °F 88% 29.75 in 10.0 mi Calm Calm - 0.16 in Rain Light Rain
10:54 PM 69.1 °F - 66.9 °F 93% 29.74 in 10.0 mi South 4.6 mph - 0.17 in Rain Rain
11:38 PM 69.8 °F - 68.0 °F 94% 29.76 in 10.0 mi South 3.5 mph - 0.09 in Rain Light Rain
11:45 PM 69.8 °F - 68.0 °F 94% 29.76 in 10.0 mi Calm Calm - 0.09 in Rain Light Rain
11:54 PM 70.0 °F - 68.0 °F 93% 29.75 in 10.0 mi Calm Calm - 0.09 in Rain Light Rain